Location: Byhalia Creek
(34.8270°N, 89.8040°W)
Time: 21:24:41
(UTC+00:00)

Meteor 2-4 Rocket - Pass Details

Date: 22 April 2026
Orbit: 798 x 906 km, 81.2° (Epoch: 21 May)

Event Time Altitude Azimuth Distance (km) Brightness Sun altitude
Exits shadow 08:40:20 48° 118° (ESE) 1,043 4.2 -29.2°
Maximum altitude 08:40:59 51° 94° (E) 1,007 4.2 -29.1°
Drops below altitude 10° 08:46:09 10° 20° (NNE) 2,377 6.8 -28.3°
Sets 08:48:34 0° 15° (NNE) 3,310 7.6 -27.9°
